Location: Perryvale
(54.4667°N, 113.3833°W)
Time: 20:00:56
(UTC+00:00)

Vanguard 1 Rocket - Pass Details

Date: 23 May 2024
Orbit: 649 x 4220 km, 34.3° (Epoch: 19 June)

Event Time Altitude Azimuth Distance (km) Brightness Sun altitude
Rises 17:24:18 0° 235° (SW) 7,995 12.1 48.7°
Reaches altitude 10° 17:31:20 10° 226° (SW) 6,500 11.8 49.5°
Maximum altitude 17:45:55 29° 177° (S) 3,746 11.6 50.9°
Drops below altitude 10° 17:54:57 10° 123° (ESE) 3,965 11.5 51.8°
Sets 17:57:59 0° 111° (ESE) 4,552 11.5 52.0°
